RH
56 62 72 76 77 77 80 88 95 79 83 74 88 69 63 60 58 57 56 50 57 62 63 67 68 69 69 70 71 72 74 74 76 81 96 95 97 97 97 97 97 99 99 94
63 71 67 89 87 83 89 68 75 82 87 77 62 58 64 65 60 61 56 61 63 63 68 70 72 71 73 74 75 77 78 80 78 76 88 92 96 97 98 97 98 97 97 99
74 65 77 92 94 78 78 61 78 97 91 63 70 70 69 64 63 61 67 69 69 71 72 74 75 78 78 78 80 81 85 82 78 78 82 86 95 96 97 98 97 98 95 98
86 57 77 66 58 59 64 56 81 77 72 69 72 66 62 58 52 71 75 78 80 80 78 78 80 79 80 83 86 88 86 82 82 82 83 84 91 94 97 97 97 98 96 96
83 88 56 94 74 79 86 73 81 81 74 74 69 72 50 39 58 68 69 72 82 84 81 81 82 83 88 92 91 88 86 86 88 90 90 89 90 95 99 97 97 94 97 93
80 97 97 82 79 62 77 96 77 72 82 88 82 90 63 63 69 69 69 72 76 80 80 82 84 91 94 91 90 90 88 91 94 95 95 94 94 99 99 99 95 93 95 97
93 97 78 89 80 69 75 77 76 77 87 90 92 82 75 68 72 69 71 73 76 80 82 87 87 89 93 91 92 93 96 97 98 98 98 97 96 96 98 100 92 81 80 94
90 99 92 83 68 77 80 82 78 87 80 90 83 77 72 68 68 71 73 77 79 82 90 87 86 91 95 92 90 97 99 100 100 100 99 94 98 97 100 99 84 73 73 81
80 68 68 67 77 92 92 96 89 92 84 85 89 80 75 74 74 75 78 79 80 93 89 86 87 94 96 93 100 98 100 98 99 99 98 95 96 97 100 95 85 78 78 82
84 67 75 73 75 62 71 86 81 79 84 87 93 84 84 79 79 81 82 81 91 94 90 90 94 97 97 97 99 100 98 98 99 100 97 94 88 94 100 96 86 88 89 83
92 70 75 63 63 78 85 81 76 79 84 87 92 86 84 87 87 89 86 92 92 93 94 94 96 96 98 98 99 99 97 95 96 98 97 97 93 92 98 94 94 94 96 96
94 82 95 88 79 77 89 85 83 90 90 84 86 92 92 88 88 92 94 94 93 92 94 95 96 96 97 99 99 99 98 93 95 98 96 97 97 92 83 96 85 86 88 96
94 96 97 90 82 73 88 84 88 94 91 94 91 94 95 94 93 92 90 92 95 96 96 97 96 97 98 98 99 98 98 98 99 96 97 98 96 100 100 79 70 79 92 97
91 97 85 73 94 88 84 86 90 89 87 88 90 93 94 93 89 88 93 97 97 97 96 96 97 96 97 98 99 99 98 99 98 98 98 97 97 97 100 97 95 95 92 85
85 88 92 93 83 81 84 90 91 90 89 91 92 94 95 96 94 96 98 99 100 94 92 97 96 97 97 98 98 98 99 100 98 93 96 98 97 98 97 98 98 99 98 84
92 87 80 88 83 81 91 92 95 91 94 95 95 95 99 100 98 94 96 98 98 96 97 97 96 97 97 98 96 98 98 99 98 98 98 98 98 99 98 98 98 98 97 99
100 93 91 88 89 93 94 97 100 100 99 99 100 100 99 99 96 95 97 97 99 98 95 98 100 98 96 97 96 98 98 98 98 97 98 99 100 99 99 99 98 97 99 97
100 98 98 99 98 96 95 99 100 100 100 100 100 100 100 99 99 100 100 96 93 89 86 99 97 96 98 97 96 97 98 97 97 98 100 100 98 100 99 99 99 98 98 98
93 99 96 98 97 99 100 99 100 99 97 100 100 100 99 98 99 98 97 96 96 96 92 97 100 97 95 99 96 96 98 98 97 98 97 97 97 97 99 98 98 98 97 97
92 92 93 95 95 97 98 96 99 98 96 100 98 95 96 92 96 96 97 98 96 100 98 97 95 97 94 96 98 94 97 98 98 98 97 98 98 98 97 98 97 97 97 97
94 95 95 96 96 94 96 98 100 98 98 100 100 100 100 94 96 95 100 98 95 97 100 88 98 98 96 96 90 94 97 98 98 98 98 98 97 97 97 96 96 96 96 96
94 95 94 94 97 95 90 94 98 97 96 95 93 96 98 96 93 95 93 99 100 100 97 91 98 98 98 94 93 96 97 97 98 97 98 99 99 98 98 97 96 96 96 96
93 92 91 92 99 95 91 90 96 97 97 96 96 97 100 98 97 100 96 94 99 98 92 96 99 100 98 90 95 98 97 98 98 97 97 97 97 98 97 98 98 96 95 96
91 87 90 96 96 93 94 88 93 91 94 93 92 95 100 100 88 96 100 100 100 100 98 100 100 100 91 92 94 95 96 96 98 97 98 97 98 98 98 98 99 99 98 97
90 89 92 99 94 93 96 93 96 91 92 91 89 90 94 97 100 100 96 89 95 100 88 91 100 100 92 94 96 96 96 96 96 96 97 97 97 98 98 99 98 100 99 99
88 88 93 98 93 96 97 99 100 95 100 99 95 92 93 93 93 97 96 90 85 92 88 89 97 96 91 94 96 96 96 95 94 96 96 96 96 97 98 98 96 95 97 98
89 90 90 94 87 93 97 99 98 100 96 98 100 91 96 94 93 97 97 93 90 86 88 87 92 97 99 91 91 95 96 96 96 97 96 96 96 96 97 97 97 97 97 95
Wind_Speed
8 9 3 1 2 1 0 3 4 6 14 11 10 16 17 17 18 18 17 18 18 17 24 28 30 30 31 30 32 31 30 29 27 27 27 30 29 27 25 26 25 25 25 26
5 2 3 2 3 3 3 5 9 9 14 8 15 16 16 19 19 18 18 20 20 22 26 27 30 31 31 30 30 31 29 28 27 25 25 26 28 27 23 24 24 25 25 25
4 3 3 2 0 2 5 8 5 6 5 12 18 18 19 20 17 15 20 21 20 22 26 28 31 33 32 31 31 30 28 27 26 23 23 25 25 26 24 24 24 21 24 24
3 5 3 3 4 4 9 10 1 6 12 14 16 18 19 17 9 18 19 20 22 26 29 31 31 33 33 31 29 28 28 26 25 24 23 24 24 23 22 24 24 23 20 21
1 1 4 2 3 4 6 12 5 11 15 15 16 20 12 11 17 19 22 27 26 28 31 31 31 31 31 31 28 27 26 25 25 24 25 23 22 21 20 20 20 22 20 18
2 1 3 1 5 6 2 5 2 13 14 16 17 10 14 21 28 28 30 28 28 30 30 30 31 29 27 29 27 26 26 25 26 25 23 23 23 23 22 18 18 18 19 12
1 2 5 2 9 6 3 5 14 13 14 15 12 10 20 27 26 30 30 30 31 30 28 29 31 30 27 27 27 27 26 27 25 24 22 21 20 22 21 19 15 16 17 12
1 2 6 2 3 1 3 9 11 12 12 16 16 19 19 19 24 29 29 31 31 30 29 32 31 28 27 28 29 28 28 26 25 26 21 18 18 20 19 18 16 16 14 8
6 4 1 0 4 2 4 9 9 14 14 16 17 18 19 18 23 27 28 29 31 27 30 32 30 29 28 32 31 28 27 25 24 25 23 19 18 18 17 17 15 15 12 10
3 1 4 7 4 3 8 9 12 14 14 13 16 17 18 18 23 25 28 29 30 30 29 31 33 32 31 32 31 29 25 24 22 20 19 16 19 15 15 16 14 13 11 10
5 3 7 3 4 7 9 11 13 19 18 16 16 16 18 18 24 26 28 28 29 28 29 32 35 35 35 34 32 27 25 22 20 17 17 17 16 17 16 16 13 15 15 12
4 2 4 7 6 14 6 11 13 14 14 19 20 19 24 23 25 26 27 29 29 31 31 34 36 35 36 34 31 28 24 19 17 17 15 14 17 18 14 10 11 12 11 11
4 2 5 11 11 7 10 14 17 16 19 19 23 22 24 24 25 29 27 28 30 31 33 34 36 35 36 33 32 26 23 21 16 14 15 12 10 11 12 15 8 7 9 8
6 2 4 2 6 17 15 17 19 19 18 18 21 24 24 24 27 26 27 29 31 32 31 33 35 35 37 36 30 26 24 19 17 12 9 8 9 10 10 10 11 14 11 11
1 6 8 11 13 13 15 16 14 13 18 20 22 23 24 25 25 27 29 29 31 28 31 35 34 38 37 38 33 29 25 23 17 11 10 7 9 9 8 9 9 9 15 12
7 10 7 5 7 11 12 13 8 11 17 21 22 24 27 25 25 25 26 27 27 28 33 33 36 36 37 37 34 29 29 26 22 21 17 10 9 7 10 11 12 10 11 11
3 5 7 8 7 9 10 14 14 16 18 19 22 26 26 25 24 26 29 30 28 28 30 33 38 35 37 37 32 28 26 25 23 23 20 18 17 16 15 15 13 14 14 17
8 10 11 11 9 10 13 14 15 18 19 21 25 25 24 21 21 25 29 31 31 34 36 39 39 36 36 35 32 31 26 26 27 23 22 21 21 20 21 19 18 18 18 17
8 11 12 14 14 14 14 17 19 21 22 22 24 25 25 22 24 27 29 27 25 27 38 39 36 32 35 31 30 32 30 27 26 25 25 23 24 24 22 21 21 21 20 20
10 10 12 13 12 13 16 17 18 19 19 20 22 24 27 28 27 29 27 21 21 28 31 34 34 31 32 28 27 31 31 28 26 25 24 24 23 22 22 21 21 21 21 21
11 11 12 13 15 16 15 16 17 19 20 17 17 20 23 25 24 25 24 21 33 32 30 32 33 32 31 26 28 30 30 28 27 25 22 22 22 22 23 22 21 21 20 20
11 13 14 14 15 17 16 15 15 16 17 18 18 20 24 26 26 25 19 18 30 28 28 30 32 31 29 27 28 28 29 29 26 26 24 23 22 21 21 22 21 19 18 17
12 12 13 13 14 16 17 14 15 16 15 16 17 19 20 21 20 20 22 30 26 26 26 26 26 27 27 30 30 29 28 29 26 25 24 23 22 21 20 18 19 19 17 16
11 12 12 12 12 13 16 18 16 16 13 15 14 15 17 22 24 20 23 22 21 23 23 21 23 24 26 29 29 28 28 29 28 26 24 21 21 20 19 18 18 17 16 15
11 12 11 11 12 13 14 16 16 18 16 18 16 18 16 16 15 21 23 24 22 21 23 22 21 22 25 26 27 28 28 25 25 27 27 25 24 22 19 17 16 15 15 15
11 11 12 11 11 11 13 14 12 16 14 17 18 19 17 18 18 19 22 22 22 21 23 23 23 23 24 23 23 25 27 28 29 28 27 28 28 26 24 20 14 13 13 12
10 9 10 11 9 10 10 13 13 15 16 17 15 18 17 17 19 19 20 22 23 22 21 22 23 22 22 22 21 21 23 25 26 28 30 28 27 27 27 26 23 15 16 9
Wind_Direction
258 261 246 253 133 126 289 261 260 285 291 316 332 325 320 317 321 324 322 325 327 324 322 320 320 320 321 321 321 324 324 322 321 323 321 326 328 333 338 342 342 356 0 16
283 274 211 263 63 348 260 297 284 282 295 355 323 317 324 320 325 323 321 323 322 322 321 320 318 317 317 318 318 320 318 316 317 321 321 323 324 329 335 339 344 1 356 11
277 340 16 338 255 334 302 292 273 290 321 327 320 321 324 317 316 317 320 319 319 319 319 317 315 314 314 316 316 316 314 314 317 319 320 319 321 326 334 338 348 349 1 351
279 351 341 231 71 305 317 295 98 331 327 320 313 313 311 301 320 320 317 315 315 315 316 315 313 312 312 313 314 313 311 313 316 318 319 319 321 322 330 336 338 351 354 339
357 218 286 314 48 340 333 313 65 344 326 318 319 313 305 330 326 317 313 314 312 312 310 311 310 310 310 310 311 310 310 312 315 317 316 315 315 315 329 330 332 345 340 351
23 345 271 223 308 298 279 273 0 335 325 321 328 323 315 326 321 318 318 318 318 316 315 312 312 313 311 308 310 308 309 311 311 311 310 311 312 317 320 325 329 329 333 355
305 254 282 275 292 291 322 318 324 328 317 323 316 301 303 311 314 317 318 320 321 321 316 313 315 315 309 311 308 309 308 308 308 307 307 309 312 316 320 319 325 340 339 350
37 325 296 325 343 18 271 314 308 318 322 314 309 308 310 314 317 320 322 324 325 321 319 318 318 317 311 309 312 312 309 307 307 306 310 312 308 312 315 320 330 336 335 346
172 230 69 149 224 99 327 299 314 319 316 313 308 310 314 315 318 320 321 321 323 322 319 319 321 320 313 311 314 312 307 304 304 305 309 312 303 309 316 323 330 329 327 342
15 334 317 301 131 340 333 318 317 309 309 308 305 312 313 316 318 321 324 323 326 325 323 320 323 322 318 316 315 311 305 305 304 299 304 308 313 314 308 314 327 324 326 325
265 303 328 149 4 346 322 322 315 316 311 310 315 312 315 316 320 322 321 326 327 326 324 322 324 323 323 321 319 313 311 308 304 299 302 308 310 314 310 308 307 304 304 304
247 189 211 267 294 313 326 317 316 311 314 319 319 314 319 319 321 320 325 327 329 329 327 325 325 325 325 328 325 320 315 316 311 307 305 307 311 319 326 309 303 306 318 315
259 258 255 277 292 323 318 316 313 322 320 313 317 322 323 320 323 330 329 331 331 328 326 327 328 327 333 335 334 333 326 319 314 308 305 307 311 308 313 337 343 330 324 328
265 335 311 317 301 316 320 321 324 321 317 321 324 325 324 323 326 332 332 330 330 329 329 333 332 336 340 341 342 343 339 332 321 325 327 324 322 318 318 316 327 343 358 351
283 296 275 292 315 318 326 328 327 321 324 328 332 327 328 326 327 327 328 332 333 334 339 340 340 340 347 349 350 351 353 351 3 349 341 329 320 318 326 330 352 340 349 2
299 294 298 310 309 320 322 327 322 319 325 327 327 326 326 324 324 328 335 340 339 333 334 338 343 347 356 355 359 358 360 5 8 16 12 353 356 342 343 351 8 1 2 358
337 325 326 320 320 316 313 308 304 306 316 320 320 324 326 327 331 338 339 345 344 338 342 347 344 353 2 4 8 360 4 8 17 21 20 26 30 28 39 41 33 29 25 18
269 277 293 296 298 304 310 310 316 319 318 322 328 329 331 331 328 330 339 346 350 352 355 352 354 359 5 9 16 11 9 13 16 19 23 27 29 32 37 38 37 36 32 36
304 300 308 310 307 303 305 315 325 327 330 334 335 334 336 335 343 344 348 347 349 346 348 349 355 2 10 10 17 23 15 15 21 24 28 31 33 35 33 35 37 40 41 42
312 314 316 317 320 321 317 327 326 328 335 337 338 342 343 347 350 351 351 341 347 344 348 356 6 4 11 12 19 30 24 17 18 23 30 30 33 33 37 37 39 41 43 47
313 318 321 323 325 329 331 332 330 329 333 341 341 341 340 344 351 354 347 344 352 357 352 7 10 7 11 15 29 31 26 19 21 18 20 25 29 32 36 42 43 45 46 49
318 318 320 323 324 325 335 336 335 333 335 343 348 350 349 350 353 351 354 348 347 351 352 10 5 7 10 22 28 29 28 24 18 25 23 25 26 30 33 36 38 38 40 41
314 316 315 318 322 324 332 342 345 344 342 349 347 349 349 345 352 345 339 350 347 351 354 10 1 7 12 27 26 27 28 24 14 21 27 28 31 32 33 30 32 32 32 31
314 319 318 321 322 325 334 342 345 348 347 355 356 358 354 349 349 0 352 345 350 352 357 3 2 6 17 25 24 25 25 24 14 21 26 27 27 26 26 27 28 26 29 29
312 316 321 321 322 325 332 340 341 349 352 354 359 0 359 2 349 347 351 360 357 359 5 8 5 8 18 20 21 25 24 22 12 21 25 26 25 22 19 17 18 17 20 24
307 309 318 316 313 319 328 340 329 343 342 342 353 355 357 1 3 355 1 3 6 8 13 12 11 8 13 15 15 20 23 25 26 21 23 25 25 24 22 14 6 7 9 12
301 305 312 316 324 326 333 336 332 337 346 343 337 350 356 1 5 2 1 6 9 11 12 15 16 10 9 10 13 15 17 20 22 21 26 23 21 20 21 19 16 13 10 360